Weather History for Hurlburt Field, FL

Change the Weather History Date:

Thursday, February 27, 2014

  Actual Average Record
Temperature  
Mean Temperature 45 °F -  
Max Temperature 55 °F 64 °F 75 °F (2007)
Min Temperature 35 °F 47 °F 26 °F (2002)
Degree Days  
Heating Degree Days 20    
Moisture  
Dew Point 16 °F    
Average Humidity 34    
Maximum Humidity 75    
Minimum Humidity 16    
Precipitation  
Precipitation 0.00 in - - ()
Sea Level Pressure  
Sea Level Pressure 30.01 in    
Wind  
Wind Speed 10 mph (North)    
Max Wind Speed 15 mph    
Max Gust Speed -    
Visibility 9 miles    
Events      
Averages and records for this station are not official NWS values.
T = Trace of Precipitation, MM = Missing Value Source: NWS Daily Summary

Daily Weather History Graph

Daily Weather History Graph

Search for Another Location

Airport:

Trip Planner

Search our weather history database for the weather conditions in past years. The results will help you decide how hot, cold, wet, or windy it might be!

Date:

Astronomy

Feb. 27, 2014 Rise Set
Actual Time 6:15 AM CST 5:44 PM CST
Civil Twilight 5:50 AM CST 6:08 PM CST
Nautical Twilight 5:23 AM CST 6:36 PM CST
Astronomical Twilight 4:55 AM CST 7:04 PM CST
Moon 4:41 AM CST (2/27) 4:12 PM CST (2/27)
Length of Visible Light 12h 17m
Length of Day
11h 29m
Waning Crescent, 4% of the Moon is Illuminated
Feb 27
Waning Crescent
Mar 1
New
Mar 8
First Quarter
Mar 16
Full
Mar 23
Last Quarter

Hourly Weather History & Observations

Time (CST) Temp. Windchill Dew Point Humidity Pressure Visibility Wind Dir Wind Speed Gust Speed Precip Events Conditions
12:58 AM 40.5 °F 32.5 °F 26.4 °F 57% 29.99 in 10.0 mi North 15.0 mph - N/A   Clear
1:58 AM 39.9 °F 32.9 °F 26.8 °F 59% 29.99 in 10.0 mi North 11.5 mph - N/A   Clear
2:58 AM 39.4 °F 32.3 °F 25.9 °F 58% 29.99 in 10.0 mi North 11.5 mph - N/A   Scattered Clouds
3:58 AM 38.5 °F 30.7 °F 25.0 °F 58% 30.01 in 10.0 mi North 12.7 mph - N/A   Partly Cloudy
4:58 AM 37.6 °F 29.6 °F 24.3 °F 59% 30.02 in 10.0 mi North 12.7 mph - N/A   Clear
5:58 AM 36.0 °F 28.0 °F 21.0 °F 55% 30.04 in 10.0 mi North 11.5 mph - N/A   Clear
6:58 AM 35.6 °F 27.1 °F 18.0 °F 49% 30.05 in 10.0 mi North 12.7 mph - N/A   Clear
7:58 AM 36.1 °F 28.2 °F 15.3 °F 43% 30.07 in 10.0 mi NNE 11.5 mph - N/A   Clear
8:58 AM 40.5 °F 32.8 °F 14.0 °F 34% 30.07 in 10.0 mi North 13.8 mph - N/A   Clear
9:40 AM 42.8 °F 36.2 °F 10.4 °F 27% 30.06 in 10.0 mi North 12.7 mph - N/A   Clear
9:50 AM 44.6 °F 38.4 °F 12.2 °F 27% 30.06 in 10.0 mi North 12.7 mph - N/A   Clear
9:58 AM 44.2 °F 38.8 °F 11.1 °F 26% 30.07 in 10.0 mi North 10.4 mph - 0.00 in   Clear
10:58 AM 48.0 °F - 10.6 °F 22% 30.05 in 10.0 mi North 12.7 mph - 0.00 in   Clear
11:58 AM 49.8 °F - 9.5 °F 20% 30.03 in 10.0 mi North 8.1 mph - 0.00 in   Clear
12:16 PM 51.8 °F - 10.4 °F 19% 30.02 in 10.0 mi NNE 6.9 mph - N/A   Light Drizzle
12:41 PM 51.8 °F - 12.2 °F 21% 30.02 in 10.0 mi North 9.2 mph - N/A   Clear
12:58 PM 52.2 °F - 10.9 °F 19% 30.02 in 10.0 mi North 6.9 mph - 0.00 in   Light Drizzle
1:15 PM 51.8 °F - 12.2 °F 21% 30.00 in 10.0 mi NNW 4.6 mph - N/A   Clear
1:58 PM 53.4 °F - 9.9 °F 18% 30.00 in 10.0 mi North 4.6 mph - 0.00 in   Light Drizzle
2:04 PM 53.6 °F - 10.4 °F 18% 29.98 in 10.0 mi Variable 3.5 mph - N/A   Clear
2:09 PM 53.6 °F - 12.2 °F 19% 29.98 in 10.0 mi North 8.1 mph - N/A   Light Drizzle
2:21 PM 53.6 °F - 10.4 °F 18% 29.98 in 10.0 mi NNW 8.1 mph - N/A   Partly Cloudy
2:29 PM 53.6 °F - 10.4 °F 18% 29.98 in 10.0 mi North 8.1 mph - N/A   Light Drizzle
2:35 PM 53.6 °F - 8.6 °F 16% 29.98 in 10.0 mi Variable 2.3 mph - N/A   Clear
2:49 PM 53.6 °F - 10.4 °F 18% 29.98 in 10.0 mi NNE 5.8 mph - N/A   Light Drizzle
2:58 PM 54.3 °F - 11.3 °F 18% 29.99 in 10.0 mi NNW 5.8 mph - 0.00 in   Light Drizzle
3:19 PM 53.6 °F - 12.2 °F 19% 29.97 in 10.0 mi NNE 6.9 mph - N/A   Partly Cloudy
3:21 PM 55.4 °F - 12.2 °F 18% 29.97 in 10.0 mi NNE 11.5 mph - N/A   Light Drizzle
3:33 PM 53.6 °F - 12.2 °F 19% 29.97 in 10.0 mi NNE 4.6 mph - N/A   Clear
3:58 PM 55.4 °F - 13.5 °F 19% 29.97 in 10.0 mi NNE 8.1 mph - 0.00 in   Light Drizzle
4:17 PM 55.4 °F - 12.2 °F 18% 29.96 in 10.0 mi North 6.9 mph - N/A   Clear
4:58 PM 53.6 °F - 13.8 °F 21% 29.97 in 10.0 mi NNW 8.1 mph - 0.00 in   Clear
5:58 PM 49.3 °F - 17.1 °F 28% 29.99 in 10.0 mi NNW 5.8 mph - N/A   Clear
6:00 PM 48.2 °F - 17.6 °F 30% 29.98 in 3.0 mi North 5.8 mph - N/A   Smoke
6:57 PM 44.6 °F 43.1 °F 25.0 °F 46% 30.01 in 3.0 mi NNW 3.5 mph - N/A   Smoke
8:02 PM 41.0 °F 39.0 °F 30.2 °F 65% 30.03 in 3.0 mi North 3.5 mph - N/A   Smoke
8:58 PM 39.9 °F 37.8 °F 28.0 °F 63% 30.04 in 3.0 mi North 3.5 mph - N/A   Smoke
9:58 PM 37.4 °F 32.8 °F 30.2 °F 75% 30.05 in 3.0 mi North 5.8 mph - N/A   Smoke
10:58 PM 35.8 °F 30.1 °F 28.6 °F 75% 30.05 in 3.0 mi North 6.9 mph - N/A   Smoke
11:58 PM 35.8 °F 29.4 °F 24.6 °F 64% 30.04 in 10.0 mi North 8.1 mph - N/A   Clear